START_TIME,STEP,MOV.,M29,t_acc.,H22,t_acc.,H26,t_acc.,H30,t_acc.
1979-07-30 21:00:30.910 ,0,0,0.,24.0,0.,24.0,0.,24.0,0.,24.0
1979-07-30 21:00:54.910 ,0,1,0.,24.0,0.,24.0,0.,24.0,0.,24.0
1979-07-30 21:01:18.910 ,0,0,0.,24.0,0.,24.0,0.,24.0,0.,24.0
1979-07-30 21:01:42.910 ,1,1,0.,24.0,0.,24.0,0.,24.0,0.,24.0
1979-07-30 21:02:06.910 ,1,0,0.,24.0,0.,24.0,0.,24.0,0.,24.0
1979-07-30 21:02:30.910 ,2,1,0.,24.0,0.,24.0,0.,24.0,0.,24.0
1979-07-30 21:02:54.910 ,2,0,0.,24.0,0.,24.0,0.,24.0,0.,24.0
1979-07-30 21:03:18.910 ,3,1,0.,24.0,0.,24.0,0.,24.0,0.,24.0
1979-07-30 21:03:42.910 ,3,0,0.,24.0,0.,24.0,0.,24.0,0.,24.0
1979-07-30 21:04:06.910 ,4,1,0.,24.0,0.,24.0,0.,24.0,0.,24.0
1979-07-30 21:04:30.910 ,4,0,0.,24.0,0.,24.0,0.,24.0,0.,24.0
1979-07-30 21:04:54.910 ,0,0,,0,,0,,0,,0
1979-07-30 21:05:18.910 ,0,0,,0,,0,,0,,0
1979-07-30 21:07:52.510 ,0,0,,0,,0,,0,,0
1979-07-30 21:08:06.910 ,2,1,0.,24.0,0.,24.0,0.,24.0,0.,24.0
1979-07-30 21:08:30.910 ,6,1,0.,24.0,0.,24.0,0.,24.0,0.,24.0
1979-07-30 21:08:54.910 ,5,1,0.,24.0,0.,24.0,0.,24.0,0.,24.0
1979-07-30 21:09:18.910 ,1,1,0.,24.0,0.,24.0,0.,24.0,0.,24.0
1979-07-30 21:09:42.910 ,2,1,0.,24.0,0.,24.0,0.,24.0,0.,24.0
1979-07-30 21:10:06.910 ,6,1,0.,24.0,0.,24.0,0.,24.0,0.,24.0
1979-07-30 21:10:30.910 ,5,1,0.,24.0,0.,24.0,0.,24.0,0.,24.0
1979-07-30 21:10:54.910 ,1,1,0.,24.0,0.,24.0,0.,24.0,0.,24.0
1979-07-30 21:11:18.910 ,2,1,0.,24.0,0.,24.0,0.,24.0,0.,24.0
1979-07-30 21:11:42.910 ,6,1,0.,24.0,0.,24.0,0.,24.0,0.,24.0
1979-07-30 21:12:06.910 ,5,1,0.,24.0,0.,24.0,0.,24.0,0.,24.0
1979-07-30 21:12:30.910 ,1,1,1.,24.0,0.,24.0,0.,24.0,0.,24.0
1979-07-30 21:12:54.910 ,2,1,0.,24.0,0.,24.0,0.,24.0,0.,24.0
1979-07-30 21:13:18.910 ,6,1,0.,24.0,0.,24.0,0.,24.0,0.,24.0
1979-07-30 21:13:42.910 ,5,1,0.,24.0,0.,24.0,0.,24.0,0.,24.0
1979-07-30 21:14:06.910 ,1,1,0.,24.0,0.,24.0,0.,24.0,0.,24.0
1979-07-30 21:14:30.910 ,2,1,0.,24.0,0.,24.0,0.,24.0,0.,24.0
1979-07-30 21:14:54.910 ,6,1,0.,24.0,0.,24.0,0.,24.0,0.,24.0
1979-07-30 21:15:18.910 ,5,1,0.,24.0,0.,24.0,0.,24.0,0.,24.0
1979-07-30 21:15:42.910 ,1,1,0.,24.0,0.,24.0,0.,24.0,0.,24.0
1979-07-30 21:16:06.910 ,2,1,0.,24.0,0.,24.0,0.,24.0,0.,24.0
1979-07-30 21:16:30.910 ,6,1,0.,24.0,0.,24.0,0.,24.0,0.,24.0
1979-07-30 21:16:54.910 ,5,1,0.,24.0,0.,24.0,0.,24.0,0.,24.0
1979-07-30 21:17:18.910 ,1,1,0.,24.0,0.,24.0,0.,24.0,0.,24.0
1979-07-30 21:17:42.910 ,0,0,0.,24.0,0.,24.0,0.,24.0,0.,24.0
1979-07-30 21:18:06.910 ,0,0,0.,24.0,0.,24.0,0.,24.0,0.,24.0
1979-07-30 21:18:30.910 ,5,1,0.,24.0,0.,24.0,0.,24.0,0.,24.0
1979-07-30 21:18:54.910 ,5,0,0.,24.0,0.,24.0,0.,24.0,0.,24.0
1979-07-30 21:19:18.910 ,4,1,0.,24.0,0.,24.0,0.,24.0,0.,24.0
1979-07-30 21:19:42.910 ,4,0,0.,24.0,0.,24.0,0.,24.0,0.,24.0
1979-07-30 21:20:06.910 ,3,1,0.,24.0,0.,24.0,0.,24.0,0.,24.0
1979-07-30 21:20:30.910 ,3,0,0.,24.0,0.,24.0,0.,24.0,0.,24.0
1979-07-30 21:20:54.910 ,2,1,0.,24.0,0.,24.0,0.,24.0,0.,24.0
1979-07-30 21:21:18.910 ,2,0,0.,24.0,0.,24.0,0.,24.0,0.,24.0
1979-07-30 21:21:42.910 ,1,1,0.,24.0,0.,24.0,0.,24.0,0.,24.0
1979-07-30 21:22:06.910 ,1,0,0.,24.0,0.,24.0,0.,24.0,0.,24.0
1979-07-30 21:22:30.910 ,0,1,0.,24.0,0.,24.0,0.,24.0,0.,24.0
1979-07-30 21:22:54.910 ,0,0,0.,24.0,0.,24.0,0.,24.0,0.,24.0
1979-07-30 21:23:18.910 ,0,1,0.,24.0,0.,24.0,0.,24.0,0.,24.0
1979-07-30 21:23:42.910 ,0,0,0.,24.0,0.,24.0,0.,24.0,0.,24.0
1979-07-30 21:24:06.910 ,1,1,0.,24.0,0.,24.0,0.,24.0,0.,24.0
1979-07-30 21:24:30.910 ,1,0,0.,24.0,0.,24.0,0.,24.0,0.,24.0
1979-07-30 21:24:54.910 ,2,1,0.,24.0,0.,24.0,0.,24.0,0.,24.0
1979-07-30 21:25:18.910 ,2,0,0.,24.0,0.,24.0,0.,24.0,0.,24.0
1979-07-30 21:25:42.910 ,3,1,0.,24.0,0.,24.0,0.,24.0,0.,24.0
1979-07-30 21:26:06.910 ,3,0,0.,24.0,0.,24.0,0.,24.0,0.,24.0
1979-07-30 21:26:30.910 ,4,1,0.,24.0,0.,24.0,0.,24.0,0.,24.0
1979-07-30 21:26:54.910 ,4,0,0.,24.0,0.,24.0,0.,24.0,0.,24.0
1979-07-30 21:27:18.910 ,5,1,1.,24.0,0.,24.0,0.,24.0,0.,24.0
1979-07-30 21:27:42.910 ,5,0,0.,24.0,0.,24.0,0.,24.0,0.,24.0
1979-07-30 21:28:06.910 ,6,1,0.,24.0,0.,24.0,0.,24.0,0.,24.0
1979-07-30 21:28:30.910 ,6,0,0.,24.0,0.,24.0,0.,24.0,0.,24.0
1979-07-30 21:28:54.910 ,7,1,0.,24.0,0.,24.0,0.,24.0,0.,24.0
1979-07-30 21:29:18.910 ,7,0,0.,24.0,0.,24.0,0.,24.0,0.,24.0
1979-07-30 21:29:42.910 ,7,1,0.,24.0,0.,24.0,0.,24.0,0.,24.0
1979-07-30 21:30:06.910 ,7,0,0.,24.0,0.,24.0,0.,24.0,0.,24.0
1979-07-30 21:30:30.910 ,6,1,0.,24.0,0.,24.0,0.,24.0,0.,24.0
1979-07-30 21:30:54.910 ,6,0,0.,24.0,0.,24.0,0.,24.0,0.,24.0
1979-07-30 21:31:18.910 ,5,1,0.,24.0,0.,24.0,0.,24.0,0.,24.0
1979-07-30 21:31:42.910 ,5,0,0.,24.0,0.,24.0,0.,24.0,0.,24.0
1979-07-30 21:32:06.910 ,4,1,0.,24.0,0.,24.0,0.,24.0,0.,24.0
1979-07-30 21:32:30.910 ,4,0,0.,24.0,0.,24.0,0.,24.0,0.,24.0
1979-07-30 21:32:54.910 ,3,1,0.,24.0,0.,24.0,0.,24.0,0.,24.0
1979-07-30 21:33:18.910 ,3,0,0.,24.0,0.,24.0,0.,24.0,0.,24.0
1979-07-30 21:33:42.910 ,2,1,0.,24.0,0.,24.0,0.,24.0,0.,24.0
1979-07-30 21:34:06.910 ,2,0,0.,24.0,0.,24.0,0.,24.0,0.,24.0
1979-07-30 21:34:30.910 ,1,1,0.,24.0,0.,24.0,0.,24.0,0.,24.0
1979-07-30 21:34:54.910 ,1,0,0.,24.0,0.,24.0,0.,24.0,0.,24.0
1979-07-30 21:35:18.910 ,0,1,0.,24.0,0.,24.0,0.,24.0,0.,24.0
1979-07-30 21:35:42.910 ,0,0,0.,24.0,0.,24.0,0.,24.0,0.,24.0
1979-07-30 21:36:06.910 ,0,1,0.,24.0,0.,24.0,0.,24.0,0.,24.0
1979-07-30 21:36:30.910 ,0,0,0.,24.0,0.,24.0,0.,24.0,0.,24.0
1979-07-30 21:36:54.910 ,1,1,0.,24.0,0.,24.0,0.,24.0,0.,24.0
1979-07-30 21:37:18.910 ,1,0,0.,24.0,0.,24.0,0.,24.0,0.,24.0
1979-07-30 21:37:42.910 ,2,1,0.,24.0,0.,24.0,0.,24.0,0.,24.0
1979-07-30 21:38:06.910 ,2,0,0.,24.0,0.,24.0,0.,24.0,0.,24.0
1979-07-30 21:38:30.910 ,3,1,0.,24.0,0.,24.0,0.,24.0,0.,24.0
1979-07-30 21:38:54.910 ,3,0,0.,24.0,0.,24.0,0.,24.0,0.,24.0
1979-07-30 21:39:18.910 ,4,1,0.,24.0,0.,24.0,0.,24.0,0.,24.0
1979-07-30 21:39:42.910 ,4,0,0.,24.0,0.,24.0,0.,24.0,0.,24.0
1979-07-30 21:40:06.910 ,5,1,0.,24.0,0.,24.0,0.,24.0,0.,24.0
1979-07-30 21:40:30.910 ,5,0,0.,24.0,0.,24.0,0.,24.0,0.,24.0
1979-07-30 21:40:54.910 ,6,1,0.,24.0,0.,24.0,0.,24.0,0.,24.0
1979-07-30 21:41:18.910 ,6,0,0.,24.0,0.,24.0,0.,24.0,0.,24.0
1979-07-30 21:41:42.910 ,7,1,0.,24.0,0.,24.0,0.,24.0,0.,24.0
1979-07-30 21:42:06.910 ,7,0,0.,24.0,0.,24.0,0.,24.0,0.,24.0
1979-07-30 21:42:30.910 ,7,1,0.,24.0,0.,24.0,0.,24.0,0.,24.0
1979-07-30 21:42:54.910 ,7,0,0.,24.0,0.,24.0,0.,24.0,0.,24.0
1979-07-30 21:43:18.910 ,6,1,0.,24.0,0.,24.0,0.,24.0,0.,24.0
1979-07-30 21:43:42.910 ,6,0,0.,24.0,0.,24.0,0.,24.0,0.,24.0
1979-07-30 21:44:06.910 ,5,1,0.,24.0,0.,24.0,0.,24.0,0.,24.0
1979-07-30 21:44:30.910 ,5,0,0.,24.0,0.,24.0,0.,24.0,0.,24.0
1979-07-30 21:44:54.910 ,4,1,0.,24.0,0.,24.0,0.,24.0,0.,24.0
1979-07-30 21:45:18.910 ,4,0,0.,24.0,0.,24.0,0.,24.0,0.,24.0
1979-07-30 21:45:42.910 ,3,1,0.,24.0,0.,24.0,0.,24.0,0.,24.0
1979-07-30 21:46:06.910 ,3,0,0.,24.0,0.,24.0,0.,24.0,0.,24.0
1979-07-30 21:46:30.910 ,2,1,0.,24.0,0.,24.0,0.,24.0,0.,24.0
1979-07-30 21:46:54.910 ,2,0,0.,24.0,0.,24.0,0.,24.0,0.,24.0
1979-07-30 21:47:18.910 ,1,1,0.,24.0,0.,24.0,0.,24.0,0.,24.0
1979-07-30 21:47:42.910 ,1,0,0.,24.0,0.,24.0,0.,24.0,0.,24.0
1979-07-30 21:48:06.910 ,0,1,0.,24.0,0.,24.0,0.,24.0,0.,24.0
1979-07-30 21:48:30.910 ,0,0,0.,24.0,0.,24.0,0.,24.0,0.,24.0
1979-07-30 21:48:54.910 ,0,1,0.,24.0,0.,24.0,0.,24.0,0.,24.0
1979-07-30 21:49:18.910 ,0,0,0.,24.0,0.,24.0,0.,24.0,0.,24.0
1979-07-30 21:49:42.910 ,1,1,0.,24.0,0.,24.0,0.,24.0,0.,24.0
1979-07-30 21:50:06.910 ,1,0,0.,24.0,0.,24.0,0.,24.0,0.,24.0
1979-07-30 21:50:30.910 ,2,1,0.,24.0,0.,24.0,0.,24.0,0.,24.0
1979-07-30 21:50:54.910 ,2,0,0.,24.0,0.,24.0,0.,24.0,0.,24.0
1979-07-30 21:51:18.910 ,3,1,0.,24.0,0.,24.0,0.,24.0,0.,24.0
1979-07-30 21:51:42.910 ,3,0,0.,24.0,0.,24.0,0.,24.0,0.,24.0
1979-07-30 21:52:06.910 ,4,1,0.,24.0,0.,24.0,0.,24.0,0.,24.0
1979-07-30 21:52:30.910 ,4,0,0.,24.0,0.,24.0,0.,24.0,0.,24.0
1979-07-30 21:52:54.910 ,5,1,0.,24.0,0.,24.0,0.,24.0,0.,24.0
1979-07-30 21:53:18.910 ,5,0,0.,24.0,0.,24.0,0.,24.0,0.,24.0
1979-07-30 21:53:42.910 ,6,1,1.,24.0,0.,24.0,0.,24.0,0.,24.0
1979-07-30 21:54:06.910 ,6,0,0.,24.0,0.,24.0,0.,24.0,0.,24.0
1979-07-30 21:54:30.910 ,7,0,0.,24.0,0.,24.0,0.,24.0,0.,24.0
1979-07-30 21:54:54.910 ,7,0,0.,24.0,0.,24.0,0.,24.0,0.,24.0
1979-07-30 21:55:18.910 ,5,1,0.,24.0,0.,24.0,0.,24.0,0.,24.0
1979-07-30 21:55:42.910 ,1,1,0.,24.0,0.,24.0,0.,24.0,0.,24.0
1979-07-30 21:56:06.910 ,2,1,0.,24.0,0.,24.0,0.,24.0,0.,24.0
1979-07-30 21:56:30.910 ,6,1,0.,24.0,0.,24.0,0.,24.0,0.,24.0
1979-07-30 21:56:54.910 ,5,1,0.,24.0,0.,24.0,0.,24.0,0.,24.0
1979-07-30 21:57:18.910 ,1,1,0.,24.0,0.,24.0,0.,24.0,0.,24.0
1979-07-30 21:57:42.910 ,2,1,0.,24.0,0.,24.0,0.,24.0,0.,24.0
1979-07-30 21:58:06.910 ,6,1,0.,24.0,0.,24.0,0.,24.0,0.,24.0
1979-07-30 21:58:30.910 ,5,1,0.,24.0,0.,24.0,0.,24.0,0.,24.0
1979-07-30 21:58:54.910 ,1,1,0.,24.0,0.,24.0,0.,24.0,0.,24.0
1979-07-30 21:59:18.910 ,2,1,0.,24.0,0.,24.0,0.,24.0,0.,24.0
1979-07-30 21:59:42.910 ,6,1,0.,24.0,0.,24.0,0.,24.0,0.,24.0
1979-07-30 22:00:06.910 ,5,1,0.,24.0,0.,24.0,0.,24.0,0.,24.0
1979-07-30 22:00:30.910 ,1,1,0.,24.0,0.,24.0,0.,24.0,0.,24.0
1979-07-30 22:00:54.910 ,2,1,0.,24.0,0.,24.0,0.,24.0,0.,24.0
1979-07-30 22:01:18.910 ,6,1,1.,24.0,0.,24.0,0.,24.0,0.,24.0
1979-07-30 22:01:42.910 ,5,1,0.,24.0,0.,24.0,0.,24.0,0.,24.0
1979-07-30 22:02:06.910 ,1,1,0.,24.0,0.,24.0,0.,24.0,0.,24.0
1979-07-30 22:02:30.910 ,2,1,0.,24.0,0.,24.0,0.,24.0,0.,24.0
1979-07-30 22:02:54.910 ,6,1,0.,24.0,0.,24.0,0.,24.0,0.,24.0
1979-07-30 22:03:18.910 ,5,1,0.,24.0,0.,24.0,0.,24.0,0.,24.0
1979-07-30 22:03:42.910 ,1,1,0.,24.0,0.,24.0,0.,24.0,0.,24.0
1979-07-30 22:04:06.910 ,2,1,0.,24.0,0.,24.0,0.,24.0,0.,24.0
1979-07-30 22:04:30.910 ,6,1,0.,24.0,0.,24.0,0.,24.0,0.,24.0
1979-07-30 22:04:54.910 ,5,1,0.,24.0,0.,24.0,0.,24.0,0.,24.0
1979-07-30 22:05:18.910 ,1,1,0.,24.0,0.,24.0,0.,24.0,0.,24.0
1979-07-30 22:05:42.910 ,0,0,0.,24.0,0.,24.0,0.,24.0,0.,24.0
1979-07-30 22:06:06.910 ,0,0,0.,24.0,0.,24.0,0.,24.0,0.,24.0
1979-07-30 22:06:30.910 ,5,1,0.,24.0,0.,24.0,0.,24.0,0.,24.0
1979-07-30 22:06:54.910 ,5,0,0.,24.0,0.,24.0,0.,24.0,0.,24.0
1979-07-30 22:07:18.910 ,4,1,0.,24.0,0.,24.0,0.,24.0,0.,24.0
1979-07-30 22:07:42.910 ,4,0,0.,24.0,0.,24.0,0.,24.0,0.,24.0
1979-07-30 22:08:06.910 ,3,1,0.,24.0,0.,24.0,0.,24.0,0.,24.0
1979-07-30 22:08:30.910 ,3,0,0.,24.0,0.,24.0,0.,24.0,0.,24.0
1979-07-30 22:08:54.910 ,2,1,0.,24.0,0.,24.0,0.,24.0,0.,24.0
1979-07-30 22:09:18.910 ,2,0,0.,24.0,0.,24.0,0.,24.0,0.,24.0
1979-07-30 22:09:42.910 ,1,1,1.,24.0,0.,24.0,0.,24.0,0.,24.0
1979-07-30 22:10:06.910 ,1,0,0.,24.0,0.,24.0,0.,24.0,0.,24.0
1979-07-30 22:10:30.910 ,0,1,0.,24.0,0.,24.0,0.,24.0,0.,24.0
1979-07-30 22:10:54.910 ,0,0,0.,24.0,0.,24.0,0.,24.0,0.,24.0
1979-07-30 22:11:18.910 ,0,1,0.,24.0,0.,24.0,0.,24.0,0.,24.0
1979-07-30 22:11:42.910 ,0,0,0.,24.0,0.,24.0,0.,24.0,0.,24.0
1979-07-30 22:12:06.910 ,1,1,0.,24.0,0.,24.0,0.,24.0,0.,24.0
1979-07-30 22:12:30.910 ,1,0,1.,24.0,0.,24.0,0.,24.0,0.,24.0
1979-07-30 22:12:54.910 ,2,1,0.,24.0,0.,24.0,0.,24.0,0.,24.0
1979-07-30 22:13:18.910 ,2,0,0.,24.0,0.,24.0,0.,24.0,0.,24.0
1979-07-30 22:13:42.910 ,3,1,0.,24.0,0.,24.0,0.,24.0,0.,24.0
1979-07-30 22:14:06.910 ,3,0,0.,24.0,0.,24.0,0.,24.0,0.,24.0
1979-07-30 22:14:30.910 ,4,1,0.,24.0,0.,24.0,0.,24.0,0.,24.0
1979-07-30 22:14:54.910 ,4,0,0.,24.0,0.,24.0,0.,24.0,0.,24.0
1979-07-30 22:15:18.910 ,5,1,0.,24.0,0.,24.0,0.,24.0,0.,24.0
1979-07-30 22:15:42.910 ,5,0,0.,24.0,0.,24.0,0.,24.0,0.,24.0
1979-07-30 22:16:06.910 ,6,1,0.,24.0,0.,24.0,0.,24.0,0.,24.0
1979-07-30 22:16:30.910 ,6,0,0.,24.0,0.,24.0,0.,24.0,0.,24.0
1979-07-30 22:16:54.910 ,7,1,0.,24.0,0.,24.0,0.,24.0,0.,24.0
1979-07-30 22:17:18.910 ,7,0,0.,24.0,0.,24.0,0.,24.0,0.,24.0
1979-07-30 22:17:42.910 ,7,1,0.,24.0,0.,24.0,0.,24.0,0.,24.0
1979-07-30 22:18:06.910 ,7,0,0.,24.0,0.,24.0,0.,24.0,0.,24.0
1979-07-30 22:18:30.910 ,6,1,0.,24.0,0.,24.0,0.,24.0,0.,24.0
1979-07-30 22:18:54.910 ,6,0,0.,24.0,0.,24.0,0.,24.0,0.,24.0
1979-07-30 22:19:18.910 ,5,1,0.,24.0,0.,24.0,0.,24.0,0.,24.0
1979-07-30 22:19:42.910 ,5,0,1.,24.0,0.,24.0,0.,24.0,0.,24.0
1979-07-30 22:20:06.910 ,4,1,0.,24.0,0.,24.0,0.,24.0,0.,24.0
1979-07-30 22:20:30.910 ,4,0,0.,24.0,0.,24.0,0.,24.0,0.,24.0
1979-07-30 22:20:54.910 ,3,1,0.,24.0,0.,24.0,0.,24.0,0.,24.0
1979-07-30 22:21:18.910 ,3,0,0.,24.0,0.,24.0,0.,24.0,0.,24.0
1979-07-30 22:21:42.910 ,2,1,0.,24.0,0.,24.0,0.,24.0,0.,24.0
1979-07-30 22:22:06.910 ,2,0,0.,24.0,0.,24.0,0.,24.0,0.,24.0
1979-07-30 22:22:30.910 ,1,1,0.,24.0,0.,24.0,0.,24.0,0.,24.0
1979-07-30 22:22:54.910 ,1,0,0.,24.0,0.,24.0,0.,24.0,0.,24.0
1979-07-30 22:23:18.910 ,0,1,0.,24.0,0.,24.0,0.,24.0,0.,24.0
1979-07-30 22:23:42.910 ,0,0,0.,24.0,0.,24.0,0.,24.0,0.,24.0
1979-07-30 22:24:06.910 ,0,1,0.,24.0,0.,24.0,0.,24.0,0.,24.0
1979-07-30 22:24:30.910 ,0,0,0.,24.0,0.,24.0,0.,24.0,0.,24.0
1979-07-30 22:24:54.910 ,1,1,0.,24.0,0.,24.0,0.,24.0,0.,24.0
1979-07-30 22:25:18.910 ,1,0,0.,24.0,0.,24.0,0.,24.0,0.,24.0
1979-07-30 22:25:42.910 ,2,1,0.,24.0,0.,24.0,0.,24.0,0.,24.0
1979-07-30 22:26:06.910 ,2,0,0.,24.0,0.,24.0,0.,24.0,0.,24.0
1979-07-30 22:26:30.910 ,3,1,0.,24.0,0.,24.0,0.,24.0,0.,24.0
1979-07-30 22:26:54.910 ,3,0,0.,24.0,0.,24.0,0.,24.0,0.,24.0
1979-07-30 22:27:18.910 ,4,1,0.,24.0,0.,24.0,0.,24.0,0.,24.0
1979-07-30 22:27:42.910 ,4,0,0.,24.0,0.,24.0,0.,24.0,0.,24.0
1979-07-30 22:28:06.910 ,5,1,0.,24.0,0.,24.0,0.,24.0,0.,24.0
1979-07-30 22:28:30.910 ,5,0,0.,24.0,0.,24.0,0.,24.0,0.,24.0
1979-07-30 22:28:54.910 ,6,1,0.,24.0,0.,24.0,0.,24.0,0.,24.0
1979-07-30 22:29:18.910 ,6,0,0.,24.0,0.,24.0,0.,24.0,0.,24.0
1979-07-30 22:29:42.910 ,7,1,0.,24.0,0.,24.0,0.,24.0,0.,24.0
1979-07-30 22:30:06.910 ,7,0,0.,24.0,0.,24.0,0.,24.0,0.,24.0
1979-07-30 22:30:30.910 ,7,1,0.,24.0,0.,24.0,0.,24.0,0.,24.0
1979-07-30 22:30:54.910 ,7,0,0.,24.0,0.,24.0,0.,24.0,0.,24.0
1979-07-30 22:31:18.910 ,6,1,0.,24.0,0.,24.0,0.,24.0,0.,24.0
1979-07-30 22:31:42.910 ,6,0,0.,24.0,0.,24.0,0.,24.0,0.,24.0
1979-07-30 22:32:06.910 ,5,1,0.,24.0,0.,24.0,0.,24.0,0.,24.0
1979-07-30 22:32:30.910 ,5,0,0.,24.0,0.,24.0,0.,24.0,0.,24.0
1979-07-30 22:32:54.910 ,4,1,0.,24.0,0.,24.0,0.,24.0,0.,24.0
1979-07-30 22:33:18.910 ,4,0,1.,24.0,0.,24.0,0.,24.0,0.,24.0
1979-07-30 22:33:42.910 ,3,1,0.,24.0,0.,24.0,0.,24.0,0.,24.0
1979-07-30 22:34:06.910 ,3,0,0.,24.0,0.,24.0,0.,24.0,0.,24.0
1979-07-30 22:34:30.900 ,2,1,0.,24.0,0.,24.0,0.,24.0,0.,24.0
1979-07-30 22:34:54.900 ,2,0,0.,24.0,0.,24.0,0.,24.0,0.,24.0
1979-07-30 22:35:18.900 ,1,1,0.,24.0,0.,24.0,0.,24.0,0.,24.0
1979-07-30 22:35:42.900 ,1,0,0.,24.0,0.,24.0,0.,24.0,0.,24.0
1979-07-30 22:36:06.900 ,0,1,0.,24.0,0.,24.0,0.,24.0,0.,24.0
1979-07-30 22:36:30.900 ,0,0,0.,24.0,0.,24.0,0.,24.0,0.,24.0
1979-07-30 22:36:54.900 ,0,1,0.,24.0,0.,24.0,0.,24.0,0.,24.0
1979-07-30 22:37:18.900 ,0,0,0.,24.0,0.,24.0,0.,24.0,0.,24.0
1979-07-30 22:37:42.900 ,1,1,0.,24.0,0.,24.0,0.,24.0,0.,24.0
1979-07-30 22:38:06.900 ,1,0,0.,24.0,0.,24.0,0.,24.0,0.,24.0
1979-07-30 22:38:30.900 ,2,1,0.,24.0,0.,24.0,0.,24.0,0.,24.0
1979-07-30 22:38:54.900 ,2,0,0.,24.0,0.,24.0,0.,24.0,0.,24.0
1979-07-30 22:39:18.900 ,3,1,0.,24.0,0.,24.0,0.,24.0,0.,24.0
1979-07-30 22:39:42.900 ,3,0,0.,24.0,0.,24.0,0.,24.0,0.,24.0
1979-07-30 22:40:06.900 ,4,1,0.,24.0,0.,24.0,0.,24.0,0.,24.0
1979-07-30 22:40:30.900 ,4,0,0.,24.0,0.,24.0,0.,24.0,0.,24.0
1979-07-30 22:40:54.900 ,5,1,0.,24.0,0.,24.0,0.,24.0,0.,24.0
1979-07-30 22:41:18.900 ,5,0,0.,24.0,0.,24.0,0.,24.0,0.,24.0
1979-07-30 22:41:42.900 ,6,1,1.,24.0,0.,24.0,0.,24.0,0.,24.0
1979-07-30 22:42:06.900 ,6,0,0.,24.0,0.,24.0,0.,24.0,0.,24.0
1979-07-30 22:42:30.900 ,7,0,0.,24.0,0.,24.0,0.,24.0,0.,24.0
1979-07-30 22:42:54.900 ,7,0,0.,24.0,0.,24.0,0.,24.0,0.,24.0
1979-07-30 22:43:18.900 ,5,1,0.,24.0,0.,24.0,0.,24.0,0.,24.0
1979-07-30 22:43:42.900 ,1,1,0.,24.0,0.,24.0,0.,24.0,0.,24.0
1979-07-30 22:44:06.900 ,2,1,0.,24.0,0.,24.0,0.,24.0,0.,24.0
1979-07-30 22:44:30.900 ,6,1,0.,24.0,0.,24.0,0.,24.0,0.,24.0
1979-07-30 22:44:54.900 ,5,1,0.,24.0,0.,24.0,0.,24.0,0.,24.0
1979-07-30 22:45:18.900 ,1,1,0.,24.0,0.,24.0,0.,24.0,0.,24.0
1979-07-30 22:45:42.900 ,2,1,0.,24.0,0.,24.0,0.,24.0,0.,24.0
1979-07-30 22:46:06.900 ,6,1,0.,24.0,0.,24.0,0.,24.0,0.,24.0
1979-07-30 22:46:30.900 ,5,1,0.,24.0,0.,24.0,0.,24.0,0.,24.0
1979-07-30 22:46:54.900 ,1,1,1.,24.0,0.,24.0,0.,24.0,0.,24.0
1979-07-30 22:47:18.900 ,2,1,0.,24.0,0.,24.0,0.,24.0,0.,24.0
1979-07-30 22:47:42.900 ,6,1,0.,24.0,0.,24.0,0.,24.0,0.,24.0
1979-07-30 22:48:06.900 ,5,1,0.,24.0,0.,24.0,0.,24.0,0.,24.0
1979-07-30 22:48:30.900 ,1,1,0.,24.0,0.,24.0,0.,24.0,0.,24.0
1979-07-30 22:48:54.900 ,2,1,0.,24.0,0.,24.0,0.,24.0,0.,24.0
1979-07-30 22:49:18.900 ,6,1,1.,24.0,0.,24.0,0.,24.0,0.,24.0
1979-07-30 22:49:42.900 ,5,1,0.,24.0,0.,24.0,0.,24.0,0.,24.0
1979-07-30 22:50:06.900 ,1,1,0.,24.0,0.,24.0,0.,24.0,0.,24.0
1979-07-30 22:51:18.900 ,0,0,0.,24.0,0.,24.0,0.,24.0,0.,24.0
1979-07-30 22:51:42.900 ,1,1,0.,24.0,0.,24.0,0.,24.0,0.,24.0
1979-07-30 22:52:06.900 ,2,1,0.,24.0,0.,24.0,0.,24.0,0.,24.0
1979-07-30 22:52:30.900 ,6,1,0.,24.0,0.,24.0,0.,24.0,0.,24.0
1979-07-30 22:52:54.900 ,5,1,0.,24.0,0.,24.0,0.,24.0,0.,24.0
1979-07-30 22:53:18.900 ,1,1,1.,24.0,0.,24.0,0.,24.0,0.,24.0
1979-07-30 22:53:42.900 ,0,0,0.,24.0,0.,24.0,0.,24.0,0.,24.0
1979-07-30 22:54:06.900 ,0,0,0.,24.0,0.,24.0,0.,24.0,0.,24.0
1979-07-30 22:54:30.900 ,5,1,0.,24.0,0.,24.0,0.,24.0,0.,24.0
1979-07-30 22:54:54.900 ,5,0,0.,24.0,0.,24.0,0.,24.0,0.,24.0
1979-07-30 22:55:18.900 ,4,1,0.,24.0,0.,24.0,0.,24.0,0.,24.0
1979-07-30 22:55:42.900 ,4,0,0.,24.0,0.,24.0,0.,24.0,0.,24.0
1979-07-30 22:56:06.900 ,3,1,0.,24.0,0.,24.0,0.,24.0,0.,24.0
1979-07-30 22:56:30.900 ,3,0,0.,24.0,0.,24.0,0.,24.0,0.,24.0
1979-07-30 22:56:54.900 ,2,1,0.,24.0,0.,24.0,0.,24.0,0.,24.0
1979-07-30 22:57:18.900 ,2,0,1.,24.0,0.,24.0,0.,24.0,0.,24.0
1979-07-30 22:57:42.900 ,1,1,0.,24.0,0.,24.0,0.,24.0,0.,24.0
1979-07-30 22:58:06.900 ,1,0,0.,24.0,0.,24.0,0.,24.0,0.,24.0
1979-07-30 22:58:30.900 ,0,1,0.,24.0,0.,24.0,0.,24.0,0.,24.0
1979-07-30 22:58:54.900 ,0,0,0.,24.0,0.,24.0,0.,24.0,0.,24.0
1979-07-30 22:59:18.900 ,0,1,0.,24.0,0.,24.0,0.,24.0,0.,24.0
1979-07-30 22:59:42.900 ,0,0,0.,24.0,0.,24.0,0.,24.0,0.,24.0
1979-07-30 23:00:06.900 ,1,1,0.,24.0,0.,24.0,0.,24.0,0.,24.0
1979-07-30 23:00:30.900 ,1,0,0.,24.0,0.,24.0,0.,24.0,0.,24.0
1979-07-30 23:00:54.900 ,2,1,0.,24.0,0.,24.0,0.,24.0,0.,24.0
1979-07-30 23:01:18.900 ,2,0,0.,24.0,0.,24.0,0.,24.0,0.,24.0
1979-07-30 23:01:42.900 ,3,1,0.,24.0,0.,24.0,0.,24.0,0.,24.0
1979-07-30 23:02:06.900 ,3,0,0.,24.0,0.,24.0,0.,24.0,0.,24.0
1979-07-30 23:02:30.900 ,4,1,0.,24.0,0.,24.0,0.,24.0,0.,24.0
1979-07-30 23:02:54.900 ,4,0,0.,24.0,0.,24.0,0.,24.0,0.,24.0
1979-07-30 23:03:18.900 ,5,1,0.,24.0,0.,24.0,0.,24.0,0.,24.0
1979-07-30 23:03:42.900 ,5,0,0.,24.0,0.,24.0,0.,24.0,0.,24.0
1979-07-30 23:04:06.900 ,6,1,0.,24.0,0.,24.0,0.,24.0,0.,24.0
1979-07-30 23:04:30.900 ,6,0,0.,24.0,0.,24.0,0.,24.0,0.,24.0
1979-07-30 23:04:54.900 ,7,1,0.,24.0,0.,24.0,0.,24.0,0.,24.0
1979-07-30 23:05:18.900 ,7,0,0.,24.0,0.,24.0,0.,24.0,0.,24.0
1979-07-30 23:05:42.900 ,7,1,0.,24.0,0.,24.0,0.,24.0,0.,24.0
1979-07-30 23:06:06.900 ,7,0,0.,24.0,0.,24.0,0.,24.0,0.,24.0
1979-07-30 23:06:30.900 ,6,1,0.,24.0,0.,24.0,0.,24.0,0.,24.0
1979-07-30 23:06:54.900 ,6,0,0.,24.0,0.,24.0,0.,24.0,0.,24.0
1979-07-30 23:07:18.900 ,5,1,0.,24.0,0.,24.0,0.,24.0,0.,24.0
1979-07-30 23:07:42.900 ,5,0,0.,24.0,0.,24.0,0.,24.0,0.,24.0
1979-07-30 23:08:06.900 ,4,1,0.,24.0,0.,24.0,0.,24.0,0.,24.0
1979-07-30 23:08:30.900 ,4,0,0.,24.0,0.,24.0,0.,24.0,0.,24.0
1979-07-30 23:08:54.900 ,3,1,0.,24.0,0.,24.0,0.,24.0,0.,24.0
1979-07-30 23:09:18.900 ,3,0,0.,24.0,0.,24.0,0.,24.0,0.,24.0
1979-07-30 23:09:42.900 ,2,1,0.,24.0,0.,24.0,0.,24.0,0.,24.0
1979-07-30 23:10:06.900 ,2,0,0.,24.0,0.,24.0,0.,24.0,0.,24.0
1979-07-30 23:10:30.900 ,1,1,0.,24.0,0.,24.0,0.,24.0,0.,24.0
1979-07-30 23:10:54.900 ,1,0,0.,24.0,0.,24.0,0.,24.0,0.,24.0
1979-07-30 23:11:18.900 ,0,1,0.,24.0,0.,24.0,0.,24.0,0.,24.0
1979-07-30 23:11:42.900 ,0,0,0.,24.0,0.,24.0,0.,24.0,0.,24.0
1979-07-30 23:12:06.900 ,0,1,0.,24.0,0.,24.0,0.,24.0,0.,24.0
1979-07-30 23:12:30.900 ,0,0,0.,24.0,0.,24.0,0.,24.0,0.,24.0
1979-07-30 23:12:54.900 ,1,1,0.,24.0,0.,24.0,0.,24.0,0.,24.0
1979-07-30 23:13:18.900 ,1,0,0.,24.0,0.,24.0,0.,24.0,0.,24.0
1979-07-30 23:13:42.900 ,2,1,0.,24.0,0.,24.0,0.,24.0,0.,24.0
1979-07-30 23:14:06.900 ,2,0,1.,24.0,0.,24.0,0.,24.0,0.,24.0
1979-07-30 23:14:30.900 ,3,1,0.,24.0,0.,24.0,0.,24.0,0.,24.0
1979-07-30 23:14:54.900 ,3,0,0.,24.0,0.,24.0,0.,24.0,0.,24.0
1979-07-30 23:15:18.900 ,4,1,0.,24.0,0.,24.0,0.,24.0,0.,24.0
1979-07-30 23:15:42.900 ,4,0,0.,24.0,0.,24.0,0.,24.0,0.,24.0
1979-07-30 23:16:06.900 ,5,1,0.,24.0,0.,24.0,0.,24.0,0.,24.0
1979-07-30 23:16:30.900 ,5,0,0.,24.0,0.,24.0,0.,24.0,0.,24.0
1979-07-30 23:16:54.900 ,6,1,0.,24.0,0.,24.0,0.,24.0,0.,24.0
1979-07-30 23:17:18.900 ,6,0,0.,24.0,0.,24.0,0.,24.0,0.,24.0
1979-07-30 23:18:30.900 ,0,0,0.,24.0,0.,24.0,0.,24.0,0.,24.0
1979-07-30 23:18:54.900 ,0,0,0.,24.0,0.,24.0,0.,24.0,0.,24.0
1979-07-30 23:19:18.900 ,6,1,0.,24.0,0.,24.0,0.,24.0,0.,24.0
1979-07-30 23:19:42.900 ,6,0,0.,24.0,0.,24.0,0.,24.0,0.,24.0
1979-07-30 23:20:06.900 ,5,1,0.,24.0,0.,24.0,0.,24.0,0.,24.0
1979-07-30 23:20:30.900 ,5,0,0.,24.0,0.,24.0,0.,24.0,0.,24.0
1979-07-30 23:20:54.900 ,4,1,0.,24.0,0.,24.0,0.,24.0,0.,24.0
1979-07-30 23:21:18.900 ,4,0,0.,24.0,0.,24.0,0.,24.0,0.,24.0
1979-07-30 23:21:42.900 ,3,1,0.,24.0,0.,24.0,0.,24.0,0.,24.0
1979-07-30 23:22:06.900 ,3,0,0.,24.0,0.,24.0,0.,24.0,0.,24.0
1979-07-30 23:22:30.900 ,2,1,0.,24.0,0.,24.0,0.,24.0,0.,24.0
1979-07-30 23:22:54.900 ,2,0,0.,24.0,0.,24.0,0.,24.0,0.,24.0
1979-07-30 23:23:18.900 ,1,1,0.,24.0,0.,24.0,0.,24.0,0.,24.0
1979-07-30 23:23:42.900 ,1,0,0.,24.0,0.,24.0,0.,24.0,0.,24.0
1979-07-30 23:24:06.900 ,0,1,0.,24.0,0.,24.0,0.,24.0,0.,24.0
1979-07-30 23:24:30.900 ,0,0,1.,24.0,0.,24.0,0.,24.0,0.,24.0
1979-07-30 23:24:54.900 ,0,1,0.,24.0,0.,24.0,0.,24.0,0.,24.0
1979-07-30 23:25:18.900 ,0,0,0.,24.0,0.,24.0,0.,24.0,0.,24.0
1979-07-30 23:25:42.900 ,1,1,0.,24.0,0.,24.0,0.,24.0,0.,24.0
1979-07-30 23:26:06.900 ,1,0,0.,24.0,0.,24.0,0.,24.0,0.,24.0
1979-07-30 23:26:30.900 ,2,1,0.,24.0,0.,24.0,0.,24.0,0.,24.0
1979-07-30 23:26:54.900 ,2,0,0.,24.0,0.,24.0,0.,24.0,0.,24.0
1979-07-30 23:27:18.900 ,3,1,2.,24.0,0.,24.0,0.,24.0,0.,24.0
1979-07-30 23:27:42.900 ,3,0,0.,24.0,0.,24.0,0.,24.0,0.,24.0
1979-07-30 23:28:06.900 ,4,1,0.,24.0,0.,24.0,0.,24.0,0.,24.0
1979-07-30 23:28:30.900 ,4,0,0.,24.0,0.,24.0,0.,24.0,0.,24.0
1979-07-30 23:28:54.900 ,5,1,0.,24.0,0.,24.0,0.,24.0,0.,24.0
1979-07-30 23:29:18.900 ,5,0,0.,24.0,0.,24.0,0.,24.0,0.,24.0
1979-07-30 23:29:42.900 ,6,1,0.,24.0,0.,24.0,0.,24.0,0.,24.0
1979-07-30 23:30:06.900 ,6,0,0.,24.0,0.,24.0,0.,24.0,0.,24.0
1979-07-30 23:30:30.900 ,7,0,0.,24.0,0.,24.0,0.,24.0,0.,24.0
1979-07-30 23:30:54.900 ,7,0,0.,24.0,0.,24.0,0.,24.0,0.,24.0
1979-07-30 23:31:18.900 ,5,1,0.,24.0,0.,24.0,0.,24.0,0.,24.0
1979-07-30 23:31:42.900 ,1,1,0.,24.0,0.,24.0,0.,24.0,0.,24.0
1979-07-30 23:32:06.900 ,2,1,0.,24.0,0.,24.0,0.,24.0,0.,24.0
1979-07-30 23:32:30.900 ,6,1,0.,24.0,0.,24.0,0.,24.0,0.,24.0
1979-07-30 23:32:54.900 ,5,1,0.,24.0,0.,24.0,0.,24.0,0.,24.0
1979-07-30 23:33:18.900 ,1,1,0.,24.0,0.,24.0,0.,24.0,0.,24.0
1979-07-30 23:33:42.900 ,2,1,0.,24.0,0.,24.0,0.,24.0,0.,24.0
1979-07-30 23:34:06.900 ,6,1,0.,24.0,0.,24.0,0.,24.0,0.,24.0
1979-07-30 23:34:30.900 ,5,1,0.,24.0,0.,24.0,0.,24.0,0.,24.0
1979-07-30 23:34:54.900 ,1,1,0.,24.0,0.,24.0,0.,24.0,0.,24.0
1979-07-30 23:35:18.900 ,2,1,0.,24.0,0.,24.0,0.,24.0,0.,24.0
1979-07-30 23:35:42.900 ,6,1,0.,24.0,0.,24.0,0.,24.0,0.,24.0
1979-07-30 23:36:06.900 ,5,1,0.,24.0,0.,24.0,0.,24.0,0.,24.0
1979-07-30 23:36:30.900 ,1,1,0.,24.0,0.,24.0,0.,24.0,0.,24.0
1979-07-30 23:36:54.900 ,2,1,0.,24.0,0.,24.0,0.,24.0,0.,24.0
1979-07-30 23:37:18.900 ,6,1,0.,24.0,0.,24.0,0.,24.0,0.,24.0
1979-07-30 23:37:42.900 ,5,1,0.,24.0,0.,24.0,0.,24.0,1.,24.0
1979-07-30 23:38:06.900 ,1,1,0.,24.0,0.,24.0,0.,24.0,0.,24.0
1979-07-30 23:38:30.900 ,2,1,0.,24.0,0.,24.0,0.,24.0,0.,24.0